Weather History for CYYG - September, 2014

Change the Weather History Date:

Sunday, September 14, 2014

  Actual Average Record
Temperature  
Mean Temperature 58 °F -  
Max Temperature 64 °F 59 °F 77 °F (2003)
Min Temperature 51 °F 44 °F 44 °F (1998)
Degree Days  
Heating Degree Days 8    
Growing Degree Days 8 (Base 50)    
Moisture  
Dew Point 54 °F    
Average Humidity 90    
Maximum Humidity 100    
Minimum Humidity 72    
Precipitation  
Precipitation 0.08 in 0.13 in - ()
Sea Level Pressure  
Sea Level Pressure 30.07 in    
Wind  
Wind Speed 8 mph ()    
Max Wind Speed 20 mph    
Max Gust Speed 25 mph    
Visibility 12.1 miles    
Events Rain    
Averages and records for this station are not official NWS values.
T = Trace of Precipitation, MM = Missing Value Source: Averaged Metar Reports

Daily Weather History Graph

Daily Weather History Graph

Search for Another Location

Airport or City:

Trip Planner

Search our weather history database for the weather conditions in past years. The results will help you decide how hot, cold, wet, or windy it might be!

Date:

Astronomy

Sep. 14, 2014 Rise Set
Actual Time 6:49 AM ADT 7:26 PM ADT
Civil Twilight 6:18 AM ADT 7:56 PM ADT
Nautical Twilight 5:42 AM ADT 8:32 PM ADT
Astronomical Twilight 5:05 AM ADT 9:09 PM ADT
Moon 10:55 PM ADT (9/14) 1:10 PM ADT (9/14)
Length of Visible Light 13h 37m
Length of Day
12h 36m
Waning Gibbous, 65% of the Moon is Illuminated
Sep 14
Waning Gibbous
Sep 15
Last Quarter
Sep 24
New
Oct 1
First Quarter
Oct 8
Full

Hourly Weather History & Observations

Time (ADT) Temp. Dew Point Humidity Pressure Visibility Wind Dir Wind Speed Gust Speed Precip Events Conditions
12:00 AM 53.6 °F 48.2 °F 82% 30.28 in 15.0 mi East 5.8 mph - N/A   Overcast
1:00 AM 55.4 °F 48.2 °F 77% 30.22 in 15.0 mi ESE 9.2 mph - N/A   Overcast
2:00 AM 55.4 °F 48.2 °F 77% 30.19 in 15.0 mi SE 19.6 mph 25.3 mph N/A   Overcast
2:07 AM 55.4 °F 50.0 °F 82% 30.19 in 15.0 mi SE 15.0 mph 25.3 mph N/A Rain Light Rain Showers
3:00 AM 54 °F 50 °F 82% 30.16 in 15 mi ESE 9.2 mph - - Rain Light Rain Showers
3:00 AM 53.6 °F 50.0 °F 88% 30.16 in 15.0 mi ESE 10.4 mph - N/A Rain Light Rain Showers
3:30 AM 53.6 °F 50.0 °F 88% 30.15 in 15.0 mi ESE 8.1 mph - N/A   Overcast
4:00 AM 53.6 °F 50.0 °F 88% 30.14 in 15.0 mi ESE 8.1 mph - N/A   Overcast
4:25 AM 53.6 °F 50.0 °F 88% 30.13 in 15.0 mi SE 9.2 mph - N/A Rain Light Rain Showers
5:00 AM 53.6 °F 51.8 °F 94% 30.11 in 10.0 mi ESE 8.1 mph - N/A Rain Light Rain Showers
6:00 AM 53.6 °F 51.8 °F 94% 30.09 in 10.0 mi ESE 8.1 mph - N/A Rain Light Rain Showers
7:00 AM 55.4 °F 53.6 °F 94% 30.09 in 8.0 mi SE 9.2 mph - N/A Rain Light Rain Showers
7:42 AM 55.4 °F 53.6 °F 94% 30.08 in 12.0 mi SE 6.9 mph - N/A Rain Light Rain Showers
8:00 AM 55.4 °F 53.6 °F 94% 30.08 in 12.0 mi SE 6.9 mph - N/A   Overcast
8:25 AM 55.4 °F 55.4 °F 100% 30.08 in 7.0 mi SE 6.9 mph - N/A Rain Light Rain Showers
8:50 AM 55.4 °F 55.4 °F 100% 30.07 in 7.0 mi SE 8.1 mph - N/A Rain Light Rain Showers
9:00 AM 56 °F 55 °F 97% 30.07 in 12 mi SE 8.1 mph - - Rain Light Rain Showers
9:00 AM 57.2 °F 55.4 °F 94% 30.07 in 12.0 mi SE 10.4 mph - N/A Rain Light Rain Showers
9:28 AM 57.2 °F 55.4 °F 94% 30.06 in 15.0 mi SE 9.2 mph - N/A   Overcast
10:00 AM 59.0 °F 57.2 °F 94% 30.04 in 15.0 mi SE 9.2 mph - N/A   Overcast
11:00 AM 60.8 °F 59.0 °F 94% 30.01 in 15.0 mi SE 11.5 mph - N/A   Overcast
11:18 AM 62.6 °F 59.0 °F 88% 30.01 in 15.0 mi SE 9.2 mph 17.3 mph N/A Rain Light Rain Showers
12:00 PM 62.6 °F 59.0 °F 88% 30.01 in 12.0 mi SSE 10.4 mph - N/A Rain Light Rain Showers
1:00 PM 62.6 °F 59.0 °F 88% 29.99 in 5.0 mi South 11.5 mph - N/A Rain Light Rain Showers
1:33 PM 62.6 °F 60.8 °F 94% 29.99 in 4.0 mi South 9.2 mph - N/A Rain Light Rain Showers
2:00 PM 62.6 °F 59.0 °F 88% 29.99 in 10.0 mi South 8.1 mph - N/A Rain Light Rain Showers
2:47 PM 60.8 °F 59.0 °F 94% 29.99 in 4.0 mi NW 8.1 mph - N/A   Light Drizzle
3:00 PM 59 °F 58 °F 97% 29.99 in 3 mi NNW 8.1 mph - - Rain Light Drizzle
3:00 PM 59.0 °F 59.0 °F 100% 29.99 in 3.0 mi NNW 10.4 mph - N/A   Light Drizzle
3:43 PM 59.0 °F 57.2 °F 94% 29.99 in 15.0 mi NW 10.4 mph - N/A   Light Drizzle
4:00 PM 59.0 °F 57.2 °F 94% 29.98 in 15.0 mi NNW 6.9 mph - N/A   Mostly Cloudy
5:00 PM 59.0 °F 53.6 °F 82% 30.01 in 15.0 mi NNW 15.0 mph - N/A   Mostly Cloudy
6:00 PM 60.8 °F 51.8 °F 72% 30.01 in 15.0 mi NNW 8.1 mph 17.3 mph N/A   Mostly Cloudy
7:00 PM 57.2 °F 53.6 °F 88% 30.03 in 15.0 mi NNW 5.8 mph - N/A   Scattered Clouds
9:00 PM 53 °F 51 °F 91% 30.06 in 15 mi WNW 3.5 mph - -   Partly Cloudy
9:00 PM 53.6 °F 51.8 °F 94% 30.06 in 15.0 mi WNW 3.5 mph - N/A   Partly Cloudy
10:00 PM 51.8 °F 50.0 °F 94% 30.06 in 15.0 mi NW 3.5 mph - N/A   Partly Cloudy
11:00 PM 55.4 °F 51.8 °F 88% 30.06 in 15.0 mi WNW 8.1 mph - N/A   Mostly Cloudy